TIME,DELAY(SENSOR),PRES,T(CTD),SAL,OXYGEN,RAWTEMP,T(OPTODE),TCPHASE,FLUOR,BETA(BETA700),BETA(BETA412),BETA(BETA440),CDOM,C(CSC),ED(ED412.40),ED(ED444.00),ED(ED489.70),ED(ED554.30),LU(LU411.80),LU(LU443.40),LU(LU489.60),LU(LU554.10),COMP,TILTX,TILTX(TILTY),CHECK
1350854345,5804,497.0000000000000000,6.8664999008178710,34.1217994689941400,89.7017669677734400,591.8748779296875000,6.8464221954345700,47.6822395324707000,51,103,89,80,78,15174,2147745161,2147420608,2148004800,2147873170,2147629622,2147079021,2148240969,2147202102,930,5,13,54112
1350854455,5810,486.0000000000000000,6.9355001449584960,34.1211013793945300,92.8686676025390600,589.6638793945312000,6.9176559448242190,47.2990493774414060,52,107,91,79,78,15175,2147745490,2147421860,2148005659,2147870738,2147629952,2147082368,2148244818,2147203008,402,4,12,57653
1350854565,5809,475.0100097656250000,7.2039999961853030,34.1175994873046900,97.8709869384765600,580.9177856445312000,7.1989860534667970,46.6203994750976560,51,106,87,80,77,15176,2147745755,2147420562,2148005632,2147872256,2147628013,2147082752,2148245778,2147198683,2450,4,13,13328
1350854677,5807,463.4899902343750000,7.3843998908996580,34.1185989379882800,103.7826004028320300,575.4860839843750000,7.3733520507812500,45.9146499633789060,51,104,88,80,79,15175,2147746340,2147424585,2148007241,2147871049,2147628882,2147080256,2148235931,2147200603,3429,4,13,11342
1350854776,5809,452.8399963378906000,7.5927000045776370,34.1147994995117200,109.0289001464843800,568.9556274414062000,7.5826468467712400,45.2713584899902340,52,104,88,81,77,15174,2147742866,2147421065,2148004690,2147872201,2147624960,2147085485,2148238308,2147202038,768,5,13,50673
1350854875,5808,442.3900146484375000,7.7873001098632810,34.1125984191894500,117.4942016601562500,563.2246704101562000,7.7660079002380370,44.3449211120605500,51,106,86,80,78,15175,2147746230,2147425280,2148007003,2147869138,2147625865,2147079680,2148237604,2147202569,1098,4,13,64409
1350854993,5807,431.7900085449219000,8.0130996704101560,34.1125984191894500,124.9525985717773400,556.2717895507812000,7.9880909919738770,43.5225715637207000,51,105,90,80,77,15174,2147741092,2147423213,2148004653,2147870665,2147621339,2147087789,2148236745,2147201828,836,4,13,48843
1350855147,5808,420.8500061035156000,8.0685997009277340,34.1115989685058600,127.7717971801757800,554.2293090820312000,8.0532522201538090,43.2269401550293000,51,105,90,81,77,15172,2147742564,2147422482,2148005147,2147873005,2147626230,2147087277,2148232338,2147204580,1169,4,13,62981
1350855301,5810,408.8599853515625000,8.2142000198364260,34.1101989746093750,133.8842926025390600,549.7183837890625000,8.1970386505126950,42.6000709533691400,50,105,85,80,75,15175,2147740388,2147423003,2148001673,2147870372,2147620342,2147088530,2148230336,2147203410,1502,4,13,7298
1350855422,5807,397.8500061035156000,8.3666000366210940,34.1066017150878900,139.6206970214843800,544.7708129882812000,8.3545522689819340,42.0163803100585940,50,105,90,81,75,15177,2147738285,2147422016,2148004388,2147867803,2147620635,2147088850,2148238985,2147201700,1827,4,13,62159
1350855546,5807,387.5100097656250000,8.6173000335693360,34.1027984619140600,148.6616058349609400,536.6331787109375000,8.6131944656372070,41.1179199218750000,50,105,86,81,75,15174,2147737865,2147423414,2148004214,2147872996,2147619812,2147087670,2148232146,2147203904,1511,4,13,47128
1350855689,5807,376.3200073242187500,9.0488004684448240,34.1082000732421900,162.5395050048828000,523.5861816406250000,9.0267887115478520,39.7982215881347660,50,105,85,81,74,15172,2147736393,2147422473,2148004772,2147871460,2147620973,2147089481,2148236626,2147200713,1623,4,13,24110
1350855821,5807,365.9800109863281000,9.1879997253417970,34.1132011413574200,168.0970001220703000,518.8317260742188000,9.1771850585937500,39.3004188537597660,50,106,90,81,74,15175,2147734034,2147423826,2148002441,2147870656,2147618596,2147095460,2148231771,2147205184,599,4,13,59056
1350855945,5807,354.2600097656250000,9.4690999984741210,34.1167984008789060,174.9255065917968800,509.3648071289062500,9.4761514663696290,38.6450691223144500,48,104,90,80,73,15178,2147735433,2147422518,2148006656,2147876205,2147615259,2147103131,2148229568,2147205622,622,4,13,44060
1350856055,5807,342.2300109863281000,9.9014997482299800,34.1285018920898440,184.3509063720703000,495.7525024414062500,9.9048995971679690,37.7613105773925800,49,106,87,80,72,15173,2147738230,2147420662,2148008173,2147871616,2147617344,2147099776,2148222793,2147204160,1292,3,13,28499
1350856165,5807,330.6600036621094000,10.2924995422363280,34.1351013183593750,192.6091003417968800,482.8529052734375000,10.3100299835205080,37.0000495910644500,49,105,89,81,71,15174,2147730102,2147423104,2148009929,2147868608,2147611894,2147104640,2148226112,2147204964,1084,3,14,4449
1350856283,5810,320.4100036621094000,10.5354995727539060,34.1445007324218750,196.9981994628906200,475.8255004882812500,10.5302696228027340,36.6047401428222660,49,105,86,80,71,15174,2147733961,2147426660,2148011812,2147870701,2147609316,2147107062,2148220662,2147204644,1084,4,14,62227
1350856459,5809,310.4800109863281000,11.2799997329711910,34.1707992553710940,206.5121002197265600,452.4744873046875000,11.2599096298217770,35.6397285461425800,50,104,92,80,71,15177,2147733897,2147422738,2148017874,2147868918,2147608274,2147112576,2148222381,2147207168,3056,4,13,25955
1350856645,5808,298.3900146484375000,11.8281002044677730,34.2027015686035160,210.2386932373047000,433.0664978027344000,11.8639602661132810,35.1085891723632800,48,107,88,81,70,15173,2147730011,2147428672,2148021476,2147873334,2147606043,2147115684,2148225993,2147206061,3044,3,14,2237
1350856777,5808,287.7300109863281000,12.4053001403808600,34.2377014160156250,213.4600067138672000,414.2717895507812500,12.4470300674438480,34.6263885498046900,49,102,87,80,69,15174,2147728338,2147432329,2148033782,2147870573,2147602249,2147117412,2148225892,2147208950,2080,4,14,45173
1350856900,5808,275.5199890136719000,12.9102001190185550,34.2709999084472660,215.2288055419922000,399.4343872070312500,12.9061298370361330,34.2948684692382800,48,103,86,80,68,15171,2147723300,2147434870,2148047067,2147872201,2147600265,2147128246,2148234176,2147208658,2553,4,13,40700
1350856999,5809,264.7900085449219000,13.6941003799438480,34.3326988220214840,214.4911956787109400,371.4559020996094000,13.7693195343017580,33.9069404602050800,48,107,88,81,69,15171,2147723291,2147440795,2148067766,2147874624,2147596041,2147141193,2148240082,2147212050,2113,4,13,47936
1350857109,5804,254.3500061035156200,14.7416000366210940,34.4347000122070300,215.3367004394531200,340.6512145996094000,14.7164001464843750,33.3976402282714840,48,103,88,80,68,15171,2147719030,2147432374,2148021120,2147873115,2147594532,2147137088,2148206939,2147211163,2481,4,13,20077
1350857260,5811,244.8800048828125000,15.1324996948242190,34.4841003417968750,217.3784942626953000,327.5115051269531000,15.1195096969604500,33.0911483764648440,49,107,87,81,68,15167,2147719213,2147462144,2148124086,2147872393,2147588873,2147158226,2148257334,2147215533,275,4,13,33997
1350857502,5807,232.8800048828125000,15.8238000869750980,34.5559005737304700,216.4010925292968800,304.9229125976562500,15.8115196228027340,32.8152503967285160,48,103,88,80,67,15163,2147716553,2147472100,2148145920,2147871323,2147586377,2147173120,2148266496,2147217444,2234,3,14,55971
1350857632,5806,221.5899963378906200,16.3665008544921880,34.6170997619628900,214.1710968017578000,285.7760925292969000,16.3972892761230470,32.6610984802246100,49,105,85,82,66,15160,2147722560,2147515785,2148251090,2147872941,2147586157,2147202304,2148316873,2147219702,1812,3,14,15598
1350857753,5810,210.0599975585937500,16.9018001556396500,34.6763000488281250,212.5169982910156200,269.6570129394531000,16.8900203704834000,32.5220603942871100,49,107,88,79,67,15160,2147732425,2147567552,2148362468,2147870939,2147586166,2147231826,2148363702,2147225234,3087,4,14,59532
1350857876,5809,200.1399993896484400,17.4673004150390620,34.7388992309570300,212.7330932617187500,251.4743957519531200,17.4455108642578120,32.2532005310058600,50,105,89,81,66,15156,2147748068,2147637339,2148495908,2147871268,2147591460,2147270646,2148433206,2147229275,650,4,15,5709
1350857931,5809,196.5000000000000000,17.4985008239746100,34.7470016479492200,213.4407043457031200,249.8979034423828000,17.4936599731445300,32.1922607421875000,50,106,88,80,66,15157,2147757814,2147666724,2148555556,2147869467,2147595227,2147298340,2148457234,2147232018,812,3,14,35131
1350857986,5808,193.0500030517578000,17.8374004364013670,34.7816009521484400,212.7642974853515600,238.7985992431640600,17.8326396942138670,32.0742797851562500,50,109,86,81,66,15154,2147765540,2147700022,2148614930,2147870107,2147597092,2147313426,2148483584,2147232384,241,2,14,41929
1350858052,5810,189.6900024414062500,18.2611999511718750,34.8306999206543000,210.5861053466797000,224.6768951416015600,18.2638893127441400,31.9970207214355470,52,106,90,79,65,15154,2147773238,2147730249,2148671433,2147872539,2147599250,2147339556,2148511424,2147235318,2726,3,14,15122
1350858149,5807,185.7799987792968800,18.7154006958007800,34.8848991394043000,208.9963073730468800,210.6038970947265600,18.6936798095703120,31.8902797698974600,56,105,89,81,64,15151,2147793225,2147781814,2148763913,2147871113,2147603382,2147366180,2148547309,2147238445,725,2,14,24525
1350858270,5811,181.8800048828125000,19.2343006134033200,34.9560012817382800,210.1903991699218800,195.8161926269531200,19.1453990936279300,31.6212501525878900,56,108,91,81,65,15148,2147816859,2147836827,2148859657,2147871680,2147610642,2147398262,2148595547,2147242752,3129,3,15,59205
1350858391,5806,177.8300018310547000,19.6749992370605470,35.0311012268066400,213.8031005859375000,179.5659027099609400,19.6420192718505860,31.2047100067138670,58,106,91,81,64,15148,2147839277,2147910089,2148997010,2147875291,2147618176,2147449865,2148656356,2147247497,419,3,14,17568
1350858498,5803,173.4499969482422000,19.9682006835937500,35.0747985839843750,217.3907012939453000,169.1652984619140600,19.9600391387939450,30.8750305175781250,59,107,90,81,64,15140,2147871341,2147991460,2149135003,2147872283,2147633179,2147501275,2148722742,2147254043,459,3,15,42839
1350858586,5808,169.4499969482422000,20.1413002014160160,35.0970001220703100,219.1979980468750000,163.3694000244140600,20.1373291015625000,30.7036304473876950,62,108,88,81,63,15141,2147910244,2148066688,2149273398,2147872365,2147649746,2147551689,2148792950,2147258368,413,3,14,46115
1350858674,5807,166.0500030517578000,20.3813991546630860,35.1348991394043000,221.0233001708984400,155.8323974609375000,20.3679695129394530,30.5094203948974600,63,108,90,80,63,15139,2147944237,2148136850,2149392182,2147877705,2147662774,2147602633,2148853824,2147259958,3358,3,15,65465
1350858798,5807,162.1199951171875000,20.6611003875732420,35.1623001098632800,221.9570007324218800,147.6907958984375000,20.6172294616699220,30.3542709350585940,67,108,88,80,63,15131,2147997476,2148252059,2149591369,2147876242,2147692288,2147670930,2148950125,2147271113,34,3,15,43520
1350858919,5809,157.9600067138672000,20.7516002655029300,35.1729011535644500,222.9208984375000000,143.6065063476562500,20.7423191070556640,30.2517509460449220,69,109,89,81,64,15129,2148093028,2148450505,2149943762,2147878582,2147731209,2147792137,2149115437,2147285376,1330,2,16,42052
1350859018,5808,153.5099945068359400,20.8278007507324220,35.1804008483886700,223.3726043701172000,140.8101959228515600,20.8279895782470700,30.1921596527099600,72,108,89,80,62,15128,2148180498,2148609517,2150193600,2147880731,2147769874,2147886628,2149239890,2147293046,1150,2,15,46721
1350859097,5808,148.9900054931640600,20.9829998016357420,35.1908988952636700,223.4425964355468800,136.1808013916015600,20.9698505401611330,30.1281108856201170,71,110,90,81,62,15126,2148167524,2148496896,2149923876,2147878582,2147766134,2147823396,2149110838,2147280484,327,3,15,18355
1350859152,5807,145.2700042724609400,21.0963001251220700,35.1994018554687500,222.6914978027343800,132.0034942626953000,21.0979099273681640,30.1109905242919920,75,110,88,81,62,15123,2147889024,2147796726,2148557540,2147873344,2147640795,2147411638,2148433316,2147237787,3494,2,15,58895
1350859218,5810,141.0500030517578000,21.2439002990722660,35.2145996093750000,223.8282928466797000,127.6224975585937500,21.2322502136230470,29.9968891143798830,77,111,88,81,62,15120,2148460900,2148988434,2150677458,2147887616,2147889746,2148103680,2149453513,2147313307,2650,3,15,6695
1350859284,5806,137.1100006103515600,21.3892002105712900,35.2271003723144500,223.8963012695312500,122.4197006225586000,21.3918590545654300,29.9256191253662100,80,112,89,83,62,15115,2148747474,2149513225,2151610953,2147899062,2148016969,2148401179,2149900854,2147345389,2584,2,16,54552
1350859350,5808,133.6699981689453000,21.6250000000000000,35.2466011047363300,224.7575073242187500,115.5802993774414000,21.6018009185791000,29.7938499450683600,86,112,91,82,62,15113,2149166326,2150236278,2152803017,2147910994,2148196854,2148796690,2150444333,2147389577,2815,2,15,53026
1350859440,5810,129.8999938964843800,21.6959991455078120,35.2589988708496100,227.4483032226562500,112.8824005126953100,21.6846504211425780,29.6267509460449220,87,115,89,82,62,15106,2149561792,2150812562,2153701714,2147921801,2148360109,2149086217,2150819830,2147419520,2749,2,15,3551
1350859539,5809,126.0500030517578100,21.7532997131347660,35.2634010314941400,228.9972991943359400,110.9886016845703100,21.7428207397460940,29.5272102355957030,89,114,88,82,62,15101,2148299126,2148346925,2149333376,2147881792,2147823049,2147713078,2148788864,2147268726,2282,2,16,5644
1350859627,5806,122.5800018310546900,21.9276008605957030,35.2607002258300800,229.8005981445312500,106.3145980834961000,21.8864307403564450,29.4280891418457030,95,116,90,82,62,15092,2148940553,2149316214,2150850258,2147899190,2148086153,2148204096,2149437686,2147322441,2355,3,16,31570
1350859739,5809,117.7600021362304700,21.9745006561279300,35.2575988769531250,230.1044006347656200,103.7285003662109400,21.9659194946289060,29.3802700042724600,101,117,89,83,63,15087,2150958162,2152422528,2155968813,2147972022,2148936475,2149845613,2151732589,2147503808,2894,3,16,19543
1350859805,5810,113.9899978637695300,22.1832008361816400,35.2728004455566400,231.2846069335937500,97.4919433593750000,22.1576995849609380,29.2441806793212900,107,118,86,83,61,15083,2151762294,2153384941,2157345627,2148003117,2149255835,2150282825,2152266276,2147552448,245,2,15,37479
1350859871,5810,110.6500015258789000,22.3477993011474600,35.2363014221191400,234.3311004638672000,91.1470413208007800,22.3529491424560550,29.0194892883300780,111,122,90,84,62,15071,2152502893,2154237915,2158461814,2148031771,2149546962,2150629522,2152682203,2147594724,39,2,15,42071
1350859970,5809,107.1500015258789000,22.7462005615234380,35.2205009460449200,237.8146057128906200,80.6373062133789000,22.6766796112060550,28.7248401641845700,124,123,90,83,61,15053,2153461961,2155352914,2159817380,2148069339,2149936146,2151100973,2153195492,2147649673,2077,3,15,52899
1350860403,5810,103.0699996948242200,23.0916004180908200,35.1763992309570300,244.4987945556640600,67.2425613403320300,23.0898990631103500,28.2556800842285160,123,125,92,84,60,15032,2156158144,2158153920,2163021284,2148145600,2151089956,2152298468,2154461888,2147779785,3513,1,16,8622
1350860800,5809,99.5100021362304700,23.9022998809814450,35.1439018249511700,244.0567016601562500,41.6947898864746100,23.8801498413085940,27.9575901031494140,117,124,92,84,60,15034,2159675346,2161835602,2166726454,2148231890,2152673746,2153889874,2155975634,2147930861,3059,2,16,3241
1350860899,5808,97.3899993896484400,23.9594001770019530,35.1523017883300800,244.3975067138672000,39.4114494323730500,23.9509296417236330,27.9146003723144530,111,123,93,83,60,15034,2161121673,2163360484,2168343670,2148282797,2153403419,2154703222,2156779638,2148015414,121,2,16,19646
1350860977,5807,94.8300018310546900,23.9936008453369140,35.1495018005371100,244.6112976074218800,38.1760101318359400,23.9892292022705080,27.8898792266845700,109,123,93,86,59,15029,2163422692,2165815040,2170979035,2148394669,2154502336,2155896594,2157947373,2148137371,3282,1,16,64863
1350861032,5807,92.1900024414062500,24.4780006408691400,35.1617012023925800,242.8878021240234400,23.8067207336425780,24.4353294372558600,27.7883491516113280,107,126,91,85,58,15027,2165447936,2167904832,2173056210,2148477650,2155566034,2156986541,2159002377,2148245513,3121,2,16,47488
1350861087,5810,90.2900009155273400,24.6334991455078120,35.1827011108398440,243.3365936279297000,18.0045108795166000,24.6157608032226560,27.6972007751464840,101,123,93,84,59,15022,2167210779,2169979858,2175333659,2148569718,2156527552,2157995538,2159929874,2148350445,2532,2,16,42700
1350861186,5810,88.4800033569336000,24.6954002380371100,35.1848983764648440,244.1165008544922000,15.9198303222656250,24.6806297302246100,27.6373901367187500,97,125,92,84,58,15020,2169220388,2172267465,2177751232,2148673901,2157641965,2159170825,2161049206,2148469842,2031,2,16,38551
1350861287,5806,85.9000015258789000,24.8586006164550780,35.1893005371093750,244.0691986083984400,10.9084300994873050,24.8366794586181640,27.5780296325683600,97,124,93,85,58,15020,2172175597,2175307163,2180654555,2148828964,2159485046,2161065371,2162721709,2148646710,1840,2,16,38363
1350861342,5809,83.5699996948242200,24.9337997436523440,35.1697006225585940,243.9116973876953000,7.9862241744995120,24.9277305603027340,27.5489692687988280,91,125,93,85,56,15018,2175429229,2178638674,2183961892,2149009517,2161330386,2162962038,2164414674,2148824155,1392,2,16,14792
1350861397,5810,81.4800033569336000,25.0785007476806640,35.1515007019043000,243.2474975585937500,4.4342989921569820,25.0384807586669920,27.5344696044921880,89,127,92,87,59,15016,2177966683,2181093961,2186426002,2149160310,2162841929,2164483968,2165766436,2148960457,817,2,16,51430
1350861452,5804,79.9300003051757800,25.1201992034912100,35.1591987609863300,243.0682067871093800,2.4295809268951416,25.1010208129882800,27.5178699493408200,89,128,94,85,59,15017,2179788800,2182852278,2187917988,2149292763,2164223433,2165825563,2166919908,2149092050,896,2,16,59969
1350861518,5809,78.4100036621093800,25.2334995269775400,35.1428985595703100,242.5550994873047000,-0.2520650923252106,25.1847095489501950,27.5074996948242200,88,128,95,86,58,15019,2182907373,2186302272,2191637604,2149521563,2166128274,2167819684,2168676489,2149274514,909,2,16,43608
1350861607,5807,76.1699981689453100,25.2406997680664060,35.0830001831054700,241.9761962890625000,-2.1188020706176760,25.2429904937744140,27.5101604461669920,84,127,92,87,58,15009,2185993746,2189120768,2194050413,2149790372,2168535981,2170000676,2170385590,2149475547,3350,2,16,25056
1350861684,5807,74.0999984741211000,25.2656993865966800,35.0503997802734400,240.5648040771484400,-2.6745650768280030,25.2603492736816400,27.5654392242431640,82,129,92,84,58,15012,2183569782,2185194550,2187931145,2149508461,2168600228,2169275163,2168823396,2149286546,223,1,16,32501
1350861761,5807,72.4000015258789000,25.3104991912841800,35.0281982421875000,239.5650939941406200,-4.1447639465332030,25.3062705993652340,27.5918102264404300,81,127,91,85,57,15008,2194278162,2197707117,2202407104,2150370057,2175597156,2176851492,2175941165,2150048118,196,1,16,49215
1350861860,5805,70.3499984741211000,25.3372993469238280,35.0284996032714840,238.8045043945312500,-5.0271391868591310,25.3338394165039060,27.6148490905761720,76,128,92,88,58,15012,2198191094,2201657033,2206150802,2150739072,2179515638,2180532864,2178705316,2150331611,158,2,16,63366
1350861938,5809,67.9599990844726600,25.3460998535156250,35.0279998779296900,238.4799041748047000,-5.3878779411315920,25.3451099395751950,27.6248207092285160,73,127,92,86,57,15011,2202474514,2205745819,2209800155,2151277741,2184778258,2185485376,2182389723,2150741604,3514,2,16,23722
1350861993,5810,65.5100021362304700,25.3640003204345700,35.0284996032714840,238.4194030761718800,-5.9852418899536130,25.3637790679931640,27.6201992034912100,70,127,92,85,56,15014,2208063972,2211376082,2215283849,2151900553,2190093531,2190413750,2185961865,2151133366,3588,2,16,48790
1350862048,5808,63.1300010681152340,25.4055004119873050,35.0297012329101560,238.3081054687500000,-7.3660440444946290,25.4069309234619140,27.6083393096923830,69,125,91,86,58,15012,2213985408,2217203446,2220818340,2152674075,2195988992,2195959744,2189999286,2151616356,3474,2,16,52714
1350862103,5808,61.0200004577636700,25.4417991638183600,35.0335006713867200,238.2920989990234400,-8.4702911376953120,25.4414596557617200,27.5954494476318360,68,127,91,85,54,15003,2218861430,2221798299,2224750089,2153223917,2201738450,2201250075,2193763803,2152075547,3275,2,16,61086
1350862158,5808,59.0900001525878900,25.5944995880126950,35.0405998229980500,237.8504943847656200,-13.0937099456787110,25.5860805511474600,27.5586204528808600,69,126,93,87,55,14994,2224728009,2227827364,2230360914,2154267483,2208654107,2207657344,2198363876,2152597897,2996,1,16,32820
1350862247,5805,56.0600013732910160,25.7549991607666000,35.0644989013671900,236.9969940185547000,-19.2709293365478500,25.7795104980468750,27.5209503173828120,67,123,93,84,62,14996,2236745462,2241100525,2242842861,2156085723,2221011273,2218385764,2205308141,2153576768,1950,2,16,30885
1350862302,5808,53.5099983215332000,25.9356002807617200,35.0901985168457000,236.0657958984375000,-23.7763309478759770,25.9207496643066400,27.5076103210449220,62,123,92,83,59,15006,2246837458,2251275008,2252907008,2157913508,2232967680,2229521938,2213370331,2154645714,1403,2,16,55795
1350862357,5803,50.8600006103515600,26.0161991119384770,35.1048011779785160,235.4037933349609400,-26.5718708038330080,26.0084495544433600,27.5032100677490230,62,124,91,85,56,15001,2254185965,2258312996,2260457344,2160144347,2243262729,2238632987,2219587794,2155522157,876,2,16,1400
1350862412,5806,47.9900016784668000,26.0284996032714840,35.1082000732421900,235.0975952148437500,-27.1834907531738280,26.0276393890380860,27.5094890594482420,59,122,91,85,54,14999,2267087259,2272098733,2274645650,2163019730,2260060772,2254006802,2230486637,2157138587,850,2,15,56422
1350862467,5807,44.8400001525878900,26.0289993286132800,35.1082000732421900,235.1425018310547000,-27.2945308685302730,26.0311298370361330,27.5061798095703120,58,122,90,86,59,14999,2277845010,2282833033,2285161874,2166728329,2276097115,2267889033,2239656237,2158593874,968,2,16,45773
1350862522,5809,41.5800018310546900,26.0345001220703120,35.1082992553710940,235.1226959228515600,-27.5530796051025400,26.0392398834228500,27.5038604736328120,57,121,92,85,54,15003,2285700178,2290355136,2292660589,2171362541,2289432109,2279855643,2248071003,2160368905,847,2,16,37721
1350862579,5808,38.0699996948242200,26.0373992919921880,35.1095008850097660,235.1828002929687500,-27.6413993835449220,26.0420207977294920,27.5000705718994140,55,121,90,84,58,14999,2295457051,2301466770,2305803702,2177135021,2298430153,2286800813,2251926720,2161684992,654,1,15,60011
1350862634,5805,34.7200012207031250,26.0422000885009770,35.1088981628418000,235.0411071777343800,-27.8446807861328120,26.0484008789062500,27.5041294097900400,56,121,93,85,57,15003,2303278153,2309297837,2314368100,2184763602,2313058514,2299246820,2259948260,2164053796,649,2,16,35031
1350862689,5808,31.4599990844726560,26.0414009094238280,35.1100006103515600,235.3128967285156200,-27.8949394226074220,26.0499706268310550,27.4911804199218750,55,119,95,84,61,14997,2308053485,2312419949,2315797522,2189852022,2331351369,2315548589,2271373760,2166924480,587,2,16,18903
1350862744,5807,28.2900009155273440,26.0426006317138670,35.1099014282226560,235.2924957275390600,-27.9655494689941400,26.0521907806396500,27.4913005828857420,55,119,92,85,56,15002,2329463414,2335584475,2341604845,2205191213,2357243830,2338928064,2288281344,2171421083,240,1,16,14761